Location: Orange Harbor Mobile Home Park
(26.6923°N, 81.7937°W)
Time: 07:53:16
(UTC+00:00)

Cosmos 2151 Rocket - Pass Details

Date: 19 September 2020
Orbit: 617 x 642 km, 82.5° (Epoch: 29 October)

Event Time Altitude Azimuth Distance (km) Brightness Sun altitude
Rises 01:07:56 0° 189° (S) 2,886 7.0 -23.0°
Reaches altitude 10° 01:10:09 10° 192° (SSW) 1,986 6.1 -23.5°
Maximum altitude 01:14:32 70° 275° (W) 666 3.8 -24.5°
Drops below altitude 10° 01:18:59 10° 0° (N) 2,012 6.3 -25.4°
Sets 01:21:15 0° 3° (N) 2,926 7.2 -25.9°
